Location: Boiro
(42.6475°N, 8.8834°W)
Time: 16:26:24
(UTC+01:00)

Explorer 11/Cluster Stage 4 - Pass Details

Date: 02 December 2021
Orbit: 467 x 1255 km, 28.8° (Epoch: 21 January)

Event Time Altitude Azimuth Distance (km) Brightness Sun altitude
Rises 04:39:46 0° 229° (SW) 3,688 - -44.7°
Reaches altitude 10° 04:42:50 10° 216° (SW) 2,864 - -44.2°
Maximum altitude 04:48:22 24° 166° (SSE) 2,180 - -43.2°
Exits shadow 04:50:45 21° 140° (SE) 2,399 9.2 -42.7°
Drops below altitude 10° 04:54:25 10° 116° (ESE) 3,180 10.1 -42.1°
Sets 04:58:02 0° 104° (ESE) 4,186 11.0 -41.4°
